www.pogodaiklimat.ru

Погода и климат >> Архив погоды >> Индонезия >> Аэропорт Умбу Механг Кунда


ПОГОДА в Аэропорту Умбу Механг Кунда

  • Прогноз погоды в Аэропорту Умбу Механг Кунда
  • Монитор погоды в Аэропорту Умбу Механг Кунда

АРХИВ ПОГОДЫ в Аэропорту Умбу Механг Кунда

Время (UTC), дата Ветер
(напр.,м/с)
 
Видим.   Явления Облачность Т
(С)
Тd
(С)
f
(%)
Тe
(С)
Тes
(С)
Комфортность P
(гПа)
Po
(гПа)
Тmin
(С)
Tmax
(С)
R
(мм)
R24
(мм)
S
(см)
03 12.08 В 6 10 км 5/5 600 м
[Cu med, cong Ac trans Ci fib]
+28.2 +24.9 82 +40 +44 очень
душно
1014.8 1013.6
06 12.08 СВ 4 10 км 1/1 600 м
[Cu hum Ci fib]
+30.0 +23.1 67 +40 +49 очень
душно
1012.2 1011.0
09 12.08 СВ 3 10 км 1/1 600 м
[Cu hum Ci fib]
+31.0 +20.8 55 +38 +39 очень
душно
1011.5 1010.3
12 12.08 штиль 0 5000 м 1/1 600 м
[Cu hum Ci fib]
+25.7 +21 +21 комфорт 1014.2 1013.0 +32.0
15 12.08 штиль 0 5000 м 1/1 600 м
[Cu hum Ci fib]
+24.4 +18.2 68 +29 +29 душно 1014.5 1013.3
18 12.08 штиль 0 5000 м 1/1 600 м
[Cu hum Ci fib]
+22.6 +19.1 81 +29 +29 очень
душно
1013.2 1012.0
21 12.08 штиль 0 5000 м 1/1 600 м
[Cu hum Ci fib]
+21.5 +18.0 80 +26 +26 душно 1013.4 1012.2
00 13.08 штиль 0 10 км 8/6 600 м
[Cu med, cong Ci fib]
+23.6 +19.4 77 +29 +31 душно 1015.3 1014.1 +20.2
03 13.08 В 6 10 км 6/4 600 м
[Cu med, cong Ci sp]
+30.4 +21.1 58 +38 +42 очень
душно
1015.1 1013.9
06 13.08 В 7 10 км 1/1 600 м
[Cu hum Ci fib]
+29.5 +21.6 63 +38 +42 очень
душно
1012.8 1011.6
09 13.08 В 6 10 км 1/1 600 м
[Cu hum Ci fib]
+30.5 +15.3 40 +33 +33 душно 1012.9 1011.7
12 13.08 штиль 0 5000 м 1/1 600 м
[Cu hum Ci fib]
+25.5 +19.6 70 +31 +31 очень
душно
1015.5 1014.3 +31.1
15 13.08 штиль 0 5000 м 1/1 600 м
[Cu hum Ci fib]
+24.6 +19.4 73 +30 +30 очень
душно
1015.9 1014.7
18 13.08 штиль 0 5000 м 1/1 600 м
[Cu hum Ci fib]
+24.3 +19.2 73 +29 +29 душно 1015.1 1013.9
21 13.08 ЮЗ 2 5000 м 1/1 600 м
[Cu hum Ci fib]
+22.4 +19.2 82 +28 +28 душно 1015.3 1014.0
00 14.08 штиль 0 10 км 5/1 600 м
[Cu hum Ci fib]
+25.6 +20.7 74 +32 +37 очень
душно
1017.1 1016.0 +22.0
03 14.08 В 6 10 км 1/1 600 м
[Cu hum Ci fib]
+29.2 +22.1 66 +38 +45 очень
душно
1016.3 1015.1
06 14.08 В 6 10 км 1/1 600 м
[Cu hum Ci fib]
+30.0 +19.6 54 +36 +41 очень
душно
1013.8 1012.6
09 14.08 В 4 10 км 1/1 600 м
[Cu hum Ci fib]
+29.7 +5.6 22 +28 +29 жарко 1013.2 1012.0
12 14.08 штиль 0 5000 м 1/1 600 м
[Cu hum Ci fib]
+24.6 +16.0 59 +28 +28 душно 1015.2 1014.0 +31.2
15 14.08 штиль 0 5000 м 1/1 600 м
[Cu hum Ci fib]
+20.1 +15.4 74 +22 +22 комфорт 1016.2 1015.0
18 14.08 штиль 0 5000 м 1/1 600 м
[Cu hum Ci fib]
+18.9 +13.4 70 +20 +20 1015.7 1014.5
21 14.08 штиль 0 5000 м 1/1 600 м
[Cu hum Ci fib]
+18.6 +14.6 78 +19 +19 1015.9 1014.7
00 15.08 штиль 0 10 км 1/1 600 м
[Cu hum Ci fib]
+23.8 +18.1 70 +28 +33 душно 1017.5 1016.2 +18.6
03 15.08 СВ 6 10 км 1/1 600 м
[Cu hum Ci fib]
+29.4 +21.3 62 +37 +43 очень
душно
1016.6 1015.3
06 15.08 СВ 6 10 км 1/1 600 м
[Cu hum Ci fib]
+29.0 +21.9 66 +37 +42 очень
душно
1013.7 1012.5
09 15.08 В 5 10 км 1/1 600 м
[Cu hum Ci fib]
+30.2 +13.8 37 +32 +32 жарко 1013.0 1011.8
12 15.08 штиль 0 5000 м 1/1 600 м
[Cu hum Ci fib]
+22.9 +15.4 63 +27 +27 душно 1014.5 1013.3 +31.0
15 15.08 штиль 0 5000 м 1/1 600 м
[Cu hum Ci fib]
+19.4 +15.4 78 +21 +21 комфорт 1015.7 1014.5
18 15.08 штиль 0 5000 м 1/1 600 м
[Cu hum Ci fib]
+18.6 +13.4 72 +19 +19 1015.3 1014.1
21 15.08 штиль 0 5000 м 1/1 600 м
[Cu hum Ci fib]
+18.7 +12.4 67 +19 +19 1015.0 1013.8
00 16.08 ЮЗ 3 10 км 1/1 600 м
[Cu hum Ci fib]
+22.0 +13.0 57 +25 +28 комфорт 1016.5 1015.3 +18.0
03 16.08 В 2 10 км 6/5 600 м
[Cu med, cong Ac trans Ci fib]
+27.6 +20.6 66 +34 +42 очень
душно
1016.3 1015.1
06 16.08 С 6 10 км 3/1 600 м
[Cu hum Ci fib]
+30.3 +20.7 57 +38 +43 очень
душно
1013.7 1012.5
09 16.08 СВ 6 10 км 1/1 600 м
[Cu hum Ci fib]
+28.2 +19.6 60 +34 +35 очень
душно
1012.9 1011.7
12 16.08 штиль 0 5000 м 1/1 600 м
[Cu hum Ci fib]
+24.0 +19.2 75 +29 +29 душно 1014.7 1013.5 +30.6
15 16.08 штиль 0 5000 м 1/1 600 м
[Cu hum Ci fib]
+21.3 +21.9 100 +27 +27 душно 1015.6 1014.4
18 16.08 штиль 0 5000 м 1/1 600 м
[Cu hum Ci fib]
+21.1 +18.9 87 +25 +25 комфорт 1015.3 1014.1
21 16.08 штиль 0 5000 м 1/1 600 м
[Cu hum Ci fib]
1015.5 1014.0
00 17.08 Ю 3 10 км 1/1 600 м
[Cu hum Ci fib]
+22.0 +17.1 74 +26 +30 душно 1016.9 1015.7 +19.0
03 17.08 В 6 10 км 5/4 600 м
[Cu hum Ci sp]
+29.5 +18.9 53 +35 +39 очень
душно
1016.3 1015.1
06 17.08 СВ 7 10 км 3/3 600 м
[Cu hum Ci fib]
+29.2 +21.1 62 +37 +39 очень
душно
1014.3 1013.1
09 17.08 СВ 4 10 км 1/1 600 м
[Cu hum Ci fib]
+28.0 +21.0 66 +35 +36 очень
душно
1014.2 1013.0
12 17.08 штиль 0 5000 м 1/1 600 м
[Cu hum Ci fib]
+24.8 +19.1 71 +30 +30 душно 1016.0 1014.8 +29.8
15 17.08 штиль 0 5000 м 1/1 600 м
[Cu hum Ci fib]
+22.5 +18.4 78 +28 +28 душно 1016.4 1015.2
18 17.08 штиль 0 5000 м 1/1 600 м
[Cu hum Ci fib]
+19.6 +17.5 88 +22 +22 комфорт 1015.6 1014.4
21 17.08 Ю 4 5000 м 1/1 600 м
[Cu hum Ci fib]
+19.4 +17.1 87 +21 +21 комфорт 1014.8 1013.6
00 18.08 С 3 10 км 1/1 600 м
[Cu hum Ci fib]
+22.6 +17.6 73 +28 +31 душно 1016.4 1015.2 +19.0
03 18.08 В 5 10 км 6/6 600 м
[Cu med, cong Ci fib]
+29.1 +21.5 64 +37 +41 очень
душно
1016.0 1014.8
06 18.08 СВ 8 10 км 3/3 600 м
[Cu hum Ci fib]
+29.0 +20.9 62 +36 +38 очень
душно
1013.0 1011.8
09 18.08 В 5 10 км 1/1 600 м
[Cu hum Ci fib]
+27.8 +20.5 65 +35 +35 очень
душно
1012.7 1011.5
12 18.08 штиль 0 5000 м 1/1 600 м
[Cu hum Ci fib]
+25.2 +19.7 72 +31 +31 очень
душно
1014.9 1013.7 +31.2
15 18.08 штиль 0 5000 м 1/1 600 м
[Cu hum Ci fib]
+22.9 +19.3 80 +29 +29 очень
душно
1015.8 1014.7
18 18.08 Ю 2 5000 м 1/1 600 м
[Cu hum Ci fib]
+21.2 +19.2 88 +26 +26 душно 1015.0 1013.8
21 18.08 ЮЗ 4 5000 м 1/1 600 м
[Cu hum Ci fib]
+21.7 +19.2 86 +27 +27 душно 1015.2 1014.0

 

Местоположение метеостанции Аэропорт Умбу Механг Кунда (Индонезия): широта -9.67 долгота 120.33 высота над уровнем моря 12 м.

В архиве по умолчанию представлена погода в Аэропорту Умбу Механг Кунда за последнюю неделю. Архивные данные за месяц целиком и за предыдущие месяцы, начиная с января 2011 года, Вы можете получить, выбрав интересующий диапазон дат из раскрывающегося списка и нажав кнопку "Ввод!".


*Определитесь, кто Вы:
робот инопланетянин человек

Внимание! Время в таблицах - всемирное. Для получения местного времени необходимо прибавить поправку, которая равна 7 ч.

Смотрите также архив погоды в соседних городах и на ближайших метеорологических станциях:

Погода в Рутенге (Индонезия) (116 км)
Погода в Сабу (Индонезия) (188 км)
Погода в Биме (Индонезия) (218 км)
Погода в Маумере (Индонезия) (240 км)
Погода на Роти (Индонезия) (322 км)
Погода в Ларантуке (Индонезия) (329 км)
Погода в Сумбава-Бесаре (Индонезия) (347 км)
Погода в Купанге (Индонезия) (369 км)
Погода в Матараме (Индонезия) (486 км)
Погода на Алоре (Индонезия) (492 км)

Пояснения к столбцам:

Ветер - указаны скорость ветра в м/с - средняя за 10 мин, порывы в срок и между сроками (в фигурных скобках) и направление, откуда дует ветер: С - северный, СВ - северо-восточный, В - восточный, ЮВ - юго-восточный, Ю - южный, ЮЗ - юго-западный, З - западный, СЗ - северо-западный.
Видимость - горизонтальная дальность видимости в метрах или километрах. При видимости от 1 до 10 км при отсутствии осадков обычно наблюдается дымка, при ухудшении видимости до 1 км и менее - туман. В сухую погоду видимость может ухудшаться дымом, пылью или мглою.
Явления - указаны атмосферные явления, наблюдавшиеся в срок или в последний час перед сроком; фигурными скобками обозначены явления, наблюдавшиеся между сроками (за 1-3 часа до срока); квадратными скобками обозначены град или гололедные отложения с указанием их диаметра в мм.
Облачность - указаны через наклонную черту общая и нижняя облачность в баллах и высота нижней границы облаков в метрах; квадратными скобками обозначены формы облаков: Ci - перистые, Cs - перисто-слоистые, Cc - перисто-кучевые, Ac - высококучевые, As - высокослоистые, Sc - слоисто-кучевые, Ns - слоисто-дождевые, Cu - кучевые, Cb - кучево-дождевые. Подробнее классификацию облаков см. в Атласе облаков (PDF).
T - Температура воздуха - температура, измеренная на высоте 2 м над землей.
Td - Температура точки росы - температура, при понижении до которой содержащийся в воздухе водяной пар достигнет насыщения.
f - Относительная влажность воздуха - влажноcть воздуха, измеренная на высоте 2 м над землей.
Te - Эффективная температура - температура, которую ощущает одетый по сезону человек в тени. Характеристика душности погоды. При расчете учитывается влияние влажности воздуха и скорости ветра на теплоощущения человека.
Tes - Эффективная температура на солнце - температура, которую ощущает человек, с поправкой на солнечный нагрев. Характеристика знойности погоды. Зависит от высоты солнца над горизонтом, облачности и скорости ветра. Ночью, в пасмурную погоду, а также при ветре 12 м/с и более поправка равна нулю.
P - Атмосферное давление - приведенное к уровню моря атмосферное давление.
Po - Атмосферное давление - измеренное на уровне метеостанции атмосферное давление.
Tmin - Минимальная температура - минимум температуры воздуха на высоте 2 м над землей.
Tmax - Максимальная температура - максимум температуры воздуха на высоте 2 м над землей.
R - Количество осадков - Количество выпавших осадков за период времени, мм. При наведении курсора мыши на число - период времени, за который выпало указанное количество осадков.
R24 - Количество осадков - Количество выпавших осадков за 24 часа, мм.
S - Снежный покров - Высота снежного покрова, см. При наведении курсора мыши на число - состояние снежного покрова и степень покрытия местности в баллах.